User: anonymous   Login
Location: Enborne
(51.3833°N, 1.3667°W)
Time: 17:37:04
(UTC+00:00)
Language:

ERS-1 Rocket - Orbit

View from above orbital plane
View from above orbital plane
View from above satellite
View from above satellite

Ground track
Ground track

The orbit data is extracted from the following two-line orbital elements,

1 21610U 91050F   20338.48520932  .00000071  00000-0  35798-4 0  9998
2 21610  98.4483  45.8842 0004361 108.8588 261.6998 14.40924778542324
Epoch (UTC): 03 December 2020 11:38:42
Eccentricity: 0.0004361
inclination: 98.4483°
perigee height: 752 km
apogee height: 758 km
right ascension of ascending node: 45.8842°
argument of perigee: 108.8588°
revolutions per day: 14.40924778
mean anomaly at epoch: 261.6998°
orbit number at epoch: 54232

The dashed part of the orbit path shows where the satellite is in the earth's shadow,  

DLR